�N����,����,�~����,�C��,���x,�C��,����,���ϕ���,�ő�u�ԕ���,�ő厞����,���˗�,�I�_���x,�n�����x,�ő啗���N��,DTYPE
"23/11/10","00:10",0.0,15.1,93.8,1016.4,302.2,1.3,1.8,312.3,0.00,14.1,16.7,"00:03:34",1
"23/11/10","00:20",0.0,15.1,93.9,1016.6,286.7,1.0,1.7,315.9,0.00,14.2,16.7,"00:18:26",1
"23/11/10","00:30",0.0,15.2,93.9,1016.4,286.1,1.1,1.4,312.2,0.00,14.3,16.6,"00:21:06",1
"23/11/10","00:40",0.0,15.1,94.1,1016.1,292.8,1.1,1.7,318.0,0.00,14.2,16.8,"00:34:28",1
"23/11/10","00:50",0.0,15.2,94.2,1016.4,293.9,1.2,1.7,306.4,0.00,14.3,16.7,"00:45:38",1
"23/11/10","01:00",0.0,15.2,94.4,1015.9,315.6,1.5,1.9,323.1,0.00,14.3,16.6,"00:56:28",1
"23/11/10","01:10",0.0,15.0,94.5,1016.1,288.7,1.0,1.8,318.6,0.00,14.2,16.5,"01:00:34",1
"23/11/10","01:20",0.0,15.4,94.7,1016.1,280.6,1.2,1.8,271.3,0.00,14.6,16.7,"01:17:38",1
"23/11/10","01:30",0.0,15.6,94.7,1016.1,293.9,1.2,1.6,317.9,0.00,14.8,16.7,"01:20:48",1
"23/11/10","01:40",0.0,15.6,94.8,1015.6,312.3,1.2,1.7,313.3,0.00,14.8,16.6,"01:38:40",1
"23/11/10","01:50",0.0,15.2,94.9,1015.4,300.2,1.2,1.7,317.1,0.00,14.4,16.7,"01:43:52",1
"23/11/10","02:00",0.0,15.1,95.0,1015.4,305.2,1.0,1.7,310.9,0.00,14.3,16.6,"01:50:22",1
"23/11/10","02:10",0.0,14.9,95.1,1015.2,309.1,1.2,1.7,328.3,0.00,14.2,16.6,"02:02:12",1
"23/11/10","02:20",0.0,14.6,95.2,1015.2,303.2,1.1,1.7,311.5,0.00,13.9,16.5,"02:11:34",1
"23/11/10","02:30",0.0,14.4,95.3,1014.9,307.5,1.1,1.6,320.2,0.00,13.7,16.4,"02:29:04",1
"23/11/10","02:40",0.0,14.2,95.4,1014.7,297.3,1.0,1.4,311.7,0.00,13.5,16.5,"02:32:16",1
"23/11/10","02:50",0.0,14.1,95.6,1014.9,304.8,1.1,1.4,314.9,0.00,13.4,16.4,"02:45:12",1
"23/11/10","03:00",0.0,14.1,95.8,1014.5,297.5,0.8,1.2,310.6,0.00,13.5,16.6,"02:56:08",1
"23/11/10","03:10",0.0,14.2,95.8,1014.5,302.3,1.1,1.4,311.9,0.00,13.6,16.5,"03:07:52",1
"23/11/10","03:20",0.0,14.6,95.9,1014.5,323.5,1.3,1.9,322.3,0.00,14.0,16.4,"03:14:18",1
"23/11/10","03:30",0.0,14.8,95.7,1014.0,307.6,1.2,1.7,310.8,0.00,14.2,16.5,"03:23:12",1
"23/11/10","03:40",0.0,14.8,95.8,1013.8,298.6,1.0,1.4,304.8,0.00,14.2,16.5,"03:34:44",1
"23/11/10","03:50",0.0,14.9,95.9,1014.0,282.8,1.0,1.6,314.1,0.00,14.3,16.4,"03:40:16",1
"23/11/10","04:00",0.0,15.1,96.0,1013.5,290.0,1.1,1.4,282.6,0.00,14.5,16.4,"03:56:08",1
"23/11/10","04:10",0.0,15.4,95.9,1013.8,322.2,1.6,2.2,324.2,0.00,14.8,16.3,"04:06:00",1
"23/11/10","04:20",0.0,15.4,95.9,1013.5,307.8,0.8,1.8,320.7,0.00,14.8,16.4,"04:11:20",1
"23/11/10","04:30",0.0,15.4,96.0,1013.8,294.9,1.2,1.8,314.0,0.00,14.8,16.3,"04:29:28",1
"23/11/10","04:40",0.0,15.5,96.0,1012.8,299.6,1.0,1.7,319.5,0.00,14.9,16.5,"04:30:08",1
"23/11/10","04:50",0.0,15.5,96.0,1012.6,313.7,1.1,1.9,325.1,0.00,14.9,16.2,"04:48:08",1
"23/11/10","05:00",0.0,15.7,96.1,1013.0,280.1,1.3,2.1,252.1,0.00,15.1,16.6,"04:52:00",1
"23/11/10","05:10",0.0,16.0,96.1,1013.0,285.4,1.3,2.1,257.0,0.00,15.4,16.2,"05:02:08",1
"23/11/10","05:20",0.0,16.1,96.1,1012.8,337.6,1.2,1.7,359.7,0.00,15.5,16.2,"05:14:48",1
"23/11/10","05:30",0.0,16.0,96.1,1012.8,309.5,1.5,2.4,315.9,0.00,15.4,16.4,"05:25:52",1
"23/11/10","05:40",0.0,16.0,96.2,1013.0,290.5,1.2,1.8,320.2,0.00,15.4,16.2,"05:35:44",1
"23/11/10","05:50",0.0,16.1,96.2,1012.8,313.1,1.6,2.2,317.3,0.00,15.5,16.3,"05:46:24",1
"23/11/10","06:00",0.0,16.2,96.2,1013.5,300.8,1.5,2.1,327.3,0.00,15.6,16.5,"05:52:56",1
"23/11/10","06:10",0.0,16.3,96.2,1014.2,294.2,1.0,1.6,312.2,0.00,15.7,16.4,"06:03:52",1
"23/11/10","06:20",0.2,16.3,96.2,1014.2,322.5,1.3,1.7,327.2,0.00,15.7,16.3,"06:10:40",1
"23/11/10","06:30",0.0,16.3,96.2,1014.0,313.0,1.1,1.7,336.5,0.00,15.7,16.3,"06:25:12",1
"23/11/10","06:40",0.2,16.2,96.3,1014.0,275.3,0.8,1.6,298.5,0.00,15.7,16.4,"06:37:54",1
"23/11/10","06:50",0.0,16.4,96.3,1014.2,273.8,1.2,1.8,253.9,0.00,15.8,16.4,"06:45:44",1
"23/11/10","07:00",0.0,16.5,96.3,1014.0,276.4,1.1,2.0,252.3,0.00,15.9,16.4,"06:54:24",1
"23/11/10","07:10",0.2,16.4,96.3,1014.0,294.3,0.7,1.2,293.6,0.00,15.8,16.5,"07:00:02",1
"23/11/10","07:20",0.2,16.4,96.4,1013.8,300.0,1.1,2.1,322.7,0.00,15.9,16.5,"07:17:36",1
"23/11/10","07:30",0.2,16.5,96.4,1013.8,316.2,1.3,1.8,324.0,0.00,16.0,16.4,"07:22:32",1
"23/11/10","07:40",0.4,16.5,96.4,1014.0,312.1,0.8,1.7,341.5,0.00,16.0,16.2,"07:31:04",1
"23/11/10","07:50",0.4,16.5,96.5,1014.0,316.4,1.0,1.4,312.0,0.00,16.0,16.4,"07:44:00",1
"23/11/10","08:00",0.4,16.6,96.5,1014.2,317.3,1.1,1.4,330.3,0.00,16.1,16.3,"07:54:32",1
"23/11/10","08:10",0.6,16.6,96.5,1014.2,293.1,1.1,1.7,324.9,0.00,16.1,16.6,"08:08:00",1
"23/11/10","08:20",0.6,16.6,96.5,1014.2,294.5,1.1,1.4,294.0,0.00,16.1,16.6,"08:10:24",1
"23/11/10","08:30",0.4,16.7,96.5,1014.2,309.6,1.5,2.0,311.7,0.00,16.2,16.4,"08:25:54",1
"23/11/10","08:40",0.6,16.8,96.5,1014.7,285.2,1.1,1.7,305.3,0.00,16.3,16.5,"08:30:56",1
"23/11/10","08:50",1.0,16.8,96.5,1014.5,315.2,1.1,1.7,321.7,0.00,16.3,16.5,"08:42:24",1
"23/11/10","09:00",0.6,16.8,96.5,1014.7,313.9,1.0,1.4,313.8,0.00,16.3,16.6,"08:53:04",1
"23/11/10","09:10",0.6,16.9,96.6,1014.0,300.6,1.1,1.7,316.7,0.01,16.4,16.6,"09:04:08",1
"23/11/10","09:20",0.6,17.0,96.6,1014.2,253.2,1.3,2.2,234.5,0.01,16.5,16.6,"09:17:52",1
"23/11/10","09:30",0.8,17.1,96.6,1014.2,271.0,1.1,2.1,253.3,0.01,16.6,16.6,"09:22:16",1
"23/11/10","09:40",0.6,17.1,96.6,1014.0,273.3,0.7,1.1,255.2,0.01,16.6,16.4,"09:35:12",1
"23/11/10","09:50",0.6,17.0,96.7,1014.2,207.2,0.5,1.2,248.6,0.01,16.5,16.6,"09:40:40",1
"23/11/10","10:00",0.4,16.9,96.7,1014.0,279.7,1.1,1.9,242.7,0.02,16.4,16.7,"09:53:04",1
"23/11/10","10:10",0.4,16.9,96.8,1013.8,326.4,1.0,1.9,333.4,0.03,16.4,16.5,"10:06:32",1
"23/11/10","10:20",0.4,16.9,96.9,1013.5,348.1,0.8,1.4,338.8,0.03,16.4,16.7,"10:10:24",1
"23/11/10","10:30",0.2,17.0,96.9,1013.3,317.8,0.6,1.4,336.3,0.05,16.5,16.6,"10:20:24",1
"23/11/10","10:40",0.2,16.9,96.9,1012.8,319.1,0.8,1.8,324.0,0.03,16.4,16.6,"10:39:48",1
"23/11/10","10:50",0.0,16.8,97.0,1012.6,293.9,0.5,1.6,316.1,0.05,16.4,16.5,"10:40:40",1
"23/11/10","11:00",0.0,16.9,97.0,1012.3,263.8,0.6,1.1,252.4,0.05,16.5,16.5,"10:52:10",1
"23/11/10","11:10",0.0,17.0,97.0,1012.3,295.6,0.2,0.6,325.5,0.07,16.6,16.7,"11:02:18",1
"23/11/10","11:20",0.0,17.1,96.9,1011.9,245.3,0.5,1.0,244.1,0.08,16.6,16.7,"11:18:00",1
"23/11/10","11:30",0.0,17.1,96.9,1011.4,256.4,0.5,1.0,236.1,0.06,16.6,16.7,"11:24:00",1
"23/11/10","11:40",0.0,17.3,96.9,1011.2,302.6,0.7,1.2,318.5,0.05,16.8,16.7,"11:39:20",1
"23/11/10","11:50",0.0,17.2,96.9,1010.9,307.0,1.0,1.3,308.5,0.04,16.7,16.9,"11:43:12",1
"23/11/10","12:00",0.0,17.3,97.0,1010.4,295.8,0.7,1.2,272.8,0.05,16.9,16.8,"11:56:40",1
"23/11/10","12:10",0.0,17.2,97.0,1010.4,309.0,1.2,1.9,313.2,0.06,16.8,16.8,"12:01:52",1
"23/11/10","12:20",0.0,17.4,96.9,1010.4,293.7,1.1,1.8,321.3,0.05,16.9,16.8,"12:14:16",1
"23/11/10","12:30",0.0,17.2,97.0,1010.2,293.7,1.1,1.8,328.5,0.04,16.8,16.9,"12:27:44",1
"23/11/10","12:40",0.0,17.2,97.0,1010.0,281.1,1.0,1.6,263.7,0.01,16.8,16.7,"12:34:08",1
"23/11/10","12:50",0.0,17.1,97.0,1010.0,285.3,1.0,1.2,295.9,0.00,16.7,16.8,"12:44:48",1
"23/11/10","13:00",0.0,16.9,97.0,1009.7,312.4,1.5,2.4,315.8,0.01,16.5,17.0,"12:57:52",1
"23/11/10","13:10",0.4,17.0,97.0,1009.7,302.4,1.6,2.4,336.1,0.00,16.6,16.9,"13:01:52",1
"23/11/10","13:20",0.0,17.1,97.0,1009.3,295.2,1.6,2.7,306.0,0.00,16.7,16.9,"13:13:52",1
"23/11/10","13:30",0.2,17.2,97.0,1009.7,274.4,1.2,1.8,290.6,0.00,16.8,17.0,"13:24:32",1
"23/11/10","13:40",0.2,17.2,97.0,1009.5,285.2,1.5,2.2,317.2,0.01,16.8,16.8,"13:35:04",1
"23/11/10","13:50",0.4,17.3,97.0,1009.3,279.9,1.5,2.1,272.5,0.01,16.9,17.1,"13:46:40",1
"23/11/10","14:00",0.4,17.3,97.1,1008.8,268.0,1.2,1.9,261.8,0.03,16.9,16.8,"13:54:56",1
"23/11/10","14:10",0.2,17.3,97.1,1009.3,252.2,1.1,1.6,259.0,0.03,16.9,16.9,"14:04:16",1
"23/11/10","14:20",0.2,17.3,97.1,1009.3,290.2,1.7,2.6,301.1,0.01,16.9,17.1,"14:15:36",1
"23/11/10","14:30",0.6,17.3,97.1,1009.3,256.0,0.8,1.6,271.9,0.02,16.9,16.9,"14:20:08",1
"23/11/10","14:40",0.0,17.2,97.1,1009.3,246.8,0.7,1.3,250.8,0.01,16.8,17.1,"14:30:16",1
"23/11/10","14:50",0.4,17.3,97.2,1009.0,268.0,0.6,1.0,285.6,0.01,16.9,17.0,"14:40:52",1
"23/11/10","15:00",0.0,17.4,97.1,1009.0,235.8,0.5,1.2,323.5,0.02,17.0,16.9,"14:59:24",1
"23/11/10","15:10",0.0,17.3,97.1,1009.0,298.2,1.0,1.6,316.3,0.01,16.9,17.0,"15:00:38",1
"23/11/10","15:20",0.0,17.3,97.2,1008.8,307.9,1.2,1.6,314.8,0.01,16.9,17.1,"15:10:22",1
"23/11/10","15:30",0.0,17.3,97.2,1009.0,299.5,1.1,1.8,314.6,0.02,16.9,17.1,"15:26:54",1
"23/11/10","15:40",0.0,17.3,97.2,1008.6,296.6,1.1,1.3,308.9,0.01,16.9,16.9,"15:33:52",1
"23/11/10","15:50",0.0,17.3,97.2,1008.8,293.0,1.0,1.2,308.8,0.00,16.9,17.0,"15:40:30",1
"23/11/10","16:00",0.0,17.4,97.2,1009.0,263.2,0.7,1.0,269.5,0.00,17.0,17.1,"15:50:10",1
"23/11/10","16:10",0.0,17.4,97.2,1008.8,267.2,0.7,1.3,263.1,0.00,17.0,17.0,"16:02:50",1
"23/11/10","16:20",0.0,17.4,97.2,1009.0,290.4,0.8,1.4,308.4,0.00,17.0,17.0,"16:14:08",1
"23/11/10","16:30",0.0,17.3,97.2,1009.3,292.0,1.0,1.6,319.4,0.00,16.9,17.2,"16:21:08",1
"23/11/10","16:40",0.0,17.3,97.2,1009.3,310.8,1.0,1.4,322.9,0.00,16.9,17.2,"16:32:08",1
"23/11/10","16:50",0.0,17.3,97.2,1009.0,295.6,1.1,1.3,314.7,0.00,16.9,17.1,"16:48:42",1
"23/11/10","17:00",0.0,17.2,97.3,1009.3,281.3,0.8,1.3,323.0,0.00,16.8,17.0,"16:58:56",1
"23/11/10","17:10",0.0,17.1,97.3,1009.3,317.9,1.3,2.0,324.5,0.00,16.7,17.2,"17:04:56",1
"23/11/10","17:20",0.0,17.1,97.3,1009.5,311.8,1.2,1.7,321.5,0.00,16.7,17.2,"17:10:24",1
"23/11/10","17:30",0.2,17.0,97.3,1009.5,281.3,0.8,1.4,257.4,0.00,16.6,17.1,"17:21:42",1
"23/11/10","17:40",0.0,16.9,97.4,1009.3,313.5,0.8,1.8,315.9,0.00,16.5,17.1,"17:32:02",1
"23/11/10","17:50",0.0,16.9,97.4,1009.5,303.8,0.6,1.0,327.2,0.00,16.5,17.1,"17:40:56",1
"23/11/10","18:00",0.0,16.8,97.4,1010.0,309.8,0.6,1.1,313.2,0.00,16.4,16.9,"17:53:40",1
"23/11/10","18:10",0.0,16.8,97.5,1009.7,295.9,1.0,1.6,307.8,0.00,16.4,17.1,"18:03:46",1
"23/11/10","18:20",0.0,16.8,97.5,1009.7,302.7,1.2,1.8,323.4,0.00,16.4,17.1,"18:19:14",1
"23/11/10","18:30",0.0,16.9,97.5,1010.0,301.5,1.3,1.8,271.9,0.00,16.5,17.0,"18:25:02",1
"23/11/10","18:40",0.0,16.9,97.6,1009.7,324.3,1.3,1.8,342.2,0.00,16.6,17.1,"18:30:16",1
"23/11/10","18:50",0.2,16.8,97.6,1010.2,316.1,1.7,2.5,322.2,0.00,16.5,17.3,"18:48:34",1
"23/11/10","19:00",0.0,16.7,97.7,1010.0,319.4,1.6,2.8,310.6,0.00,16.4,17.0,"18:58:06",1
"23/11/10","19:10",0.0,16.7,97.7,1010.4,320.1,1.6,2.4,330.7,0.00,16.4,17.0,"19:04:52",1
"23/11/10","19:20",0.2,16.7,97.8,1010.4,317.5,1.8,2.6,311.5,0.00,16.4,17.1,"19:14:50",1
"23/11/10","19:30",0.2,16.7,97.8,1010.4,321.3,1.5,1.9,306.9,0.00,16.4,17.2,"19:29:24",1
"23/11/10","19:40",0.0,16.7,97.8,1009.7,324.2,1.2,1.6,342.0,0.00,16.4,17.0,"19:30:12",1
"23/11/10","19:50",0.0,16.6,97.9,1010.2,283.3,1.2,1.7,257.0,0.00,16.3,17.1,"19:41:12",1
"23/11/10","20:00",0.0,16.4,97.9,1010.4,299.3,1.3,1.8,303.1,0.00,16.1,17.0,"19:59:58",1
"23/11/10","20:10",0.0,16.3,97.9,1010.4,296.0,1.6,2.8,311.6,0.00,16.0,17.2,"20:09:48",1
"23/11/10","20:20",0.0,16.3,97.9,1010.2,312.3,2.0,3.4,327.8,0.00,16.0,17.0,"20:10:30",1
"23/11/10","20:30",0.0,16.2,97.9,1010.4,319.6,2.1,3.3,319.2,0.00,15.9,17.0,"20:25:58",1
"23/11/10","20:40",0.0,16.2,97.9,1010.0,319.2,2.0,3.7,335.2,0.00,15.9,17.1,"20:32:26",1
"23/11/10","20:50",0.0,16.2,97.8,1010.2,313.7,2.0,3.5,345.9,0.00,15.9,16.7,"20:43:36",1
"23/11/10","21:00",0.0,16.1,97.8,1010.2,297.7,1.6,2.9,312.2,0.00,15.8,16.9,"20:58:32",1
"23/11/10","21:10",0.0,16.1,97.8,1010.7,304.3,1.5,2.7,294.2,0.00,15.8,16.9,"21:07:44",1
"23/11/10","21:20",0.0,16.1,97.7,1010.4,313.6,1.5,2.2,322.2,0.00,15.8,17.1,"21:12:56",1
"23/11/10","21:30",0.0,16.0,97.6,1010.7,309.9,1.5,2.9,313.2,0.00,15.7,16.9,"21:28:40",1
"23/11/10","21:40",0.0,16.0,97.4,1010.7,307.7,1.5,2.9,321.7,0.00,15.6,17.0,"21:34:08",1
"23/11/10","21:50",0.0,16.0,97.3,1010.7,311.8,2.0,3.6,351.5,0.00,15.6,16.9,"21:47:06",1
"23/11/10","22:00",0.0,16.0,97.1,1010.9,300.7,2.2,4.1,333.3,0.00,15.6,17.0,"21:55:42",1
"23/11/10","22:10",0.0,16.0,96.9,1010.9,297.7,1.7,3.2,335.0,0.00,15.5,17.0,"22:09:26",1
"23/11/10","22:20",0.0,16.0,96.2,1010.7,320.4,3.1,8.6,326.7,0.00,15.4,16.9,"22:16:56",1
"23/11/10","22:30",0.0,16.1,95.4,1010.9,321.3,3.1,6.6,350.1,0.00,15.4,16.9,"22:20:32",1
"23/11/10","22:40",0.0,16.2,94.3,1011.2,322.4,3.6,6.5,337.2,0.00,15.3,17.0,"22:33:52",1
"23/11/10","22:50",0.0,16.2,93.1,1011.2,335.4,2.7,5.2,14.5,0.00,15.1,17.1,"22:41:52",1
"23/11/10","23:00",0.0,16.1,91.3,1010.7,325.9,3.0,5.1,329.5,0.00,14.7,17.0,"22:52:32",1
"23/11/10","23:10",0.0,16.0,89.5,1010.9,312.9,2.5,5.2,333.7,0.00,14.3,16.9,"23:06:40",1
"23/11/10","23:20",0.0,16.0,87.8,1010.9,297.9,2.3,4.7,320.6,0.00,14.0,16.9,"23:12:48",1
"23/11/10","23:30",0.0,16.0,86.3,1010.7,287.5,2.1,3.7,312.7,0.00,13.8,16.9,"23:27:12",1
"23/11/10","23:40",0.0,16.0,85.0,1011.2,306.0,2.7,4.8,290.2,0.00,13.5,16.8,"23:37:52",1
"23/11/10","23:50",0.0,15.8,83.7,1011.9,318.2,3.5,7.0,343.8,0.00,13.1,16.8,"23:47:52",1
"23/11/10","24:00",0.0,15.7,82.7,1012.1,322.3,3.6,7.4,326.0,0.00,12.8,16.9,"23:57:04",1
